FW4558 Weather Reports


time (UTC)temp
C
wind
direction
speed
KPH
gust
KPH
rain 1hr
cm
rain 24hr
cm
rain mn
cm
humidity
%
barometer
mb
20260507050036 17 315 4.8 11.3 0.00 0.00 0.00 73 1017.5
20260507043017 17 315 6.4 14.5 0.00 0.00 0.00 71 1017.4
20260507040016 18 315 8.0 22.5 0.00 0.00 0.00 69 1017.1
20260507033016 18 315 11.3 19.3 0.00 0.00 0.00 67 1016.7
20260507030036 19 315 11.3 24.1 0.00 0.00 0.00 65 1016.6
20260507023016 20 315 11.3 25.7 0.00 0.00 0.00 62 1016.1
20260507020017 21 315 12.9 29.0 0.00 0.00 0.00 58 1015.9
20260507013036 22 315 14.5 27.4 0.00 0.00 0.00 56 1015.6
20260507010016 22 315 16.1 30.6 0.00 0.00 0.00 54 1015.4
20260507003016 23 315 16.1 29.0 0.00 0.00 0.00 50 1015.4
20260507000036 23 315 16.1 32.2 0.00 0.00 0.00 49 1015.3
20260506233016 23 293 14.5 29.0 0.00 0.00 0.00 48 1015.3
20260506230016 24 315 12.9 29.0 0.00 0.00 0.00 47 1015.5
20260506223016 24 293 14.5 29.0 0.00 0.00 0.00 50 1015.6
20260506220016 24 293 11.3 24.1 0.00 0.00 0.00 48 1016.0
20260506213016 24 270 9.7 20.9 0.00 0.00 0.00 47 1016.4
20260506210015 24 293 8.0 20.9 0.00 0.00 0.00 47 1016.8
20260506203015 23 315 4.8 17.7 0.00 0.00 0.00 47 1017.1
20260506200015 23 315 4.8 16.1 0.00 0.00 0.00 47 1017.2
20260506193017 22 338 4.8 17.7 0.00 0.00 0.00 50 1017.7
20260506190019 22 45 4.8 16.1 0.00 0.00 0.00 51 1018.0
20260506183017 21 338 4.8 12.9 0.00 0.00 0.00 52 1018.6
20260506180037 21 315 1.6 9.7 0.00 0.00 0.00 54 1018.6
20260506173017 20 338 1.6 9.7 0.00 0.00 0.00 56 1018.9
20260506170017 18 45 1.6 8.0 0.00 0.00 0.00 60 1019.0
20260506163017 18 338 1.6 6.4 0.00 0.00 0.00 63 1018.9
20260506160017 16 0.0 4.8 0.00 0.00 0.00 69 1019.0
20260506153037 15 0.0 4.8 0.00 0.00 0.00 72 1019.1
20260506150037 15 0.0 3.2 0.00 0.00 0.00 69 1019.0
20260506143017 14 0.0 1.6 0.00 0.00 0.00 75 1019.1
20260506140037 12 0.0 1.6 0.00 0.00 0.00 83 1019.0
20260506133017 10 0.0 0.0 0.00 0.00 0.00 87 1018.5
20260506130017 9 0.0 0.0 0.00 0.00 0.00 85 1018.1
20260506123016 10 0.0 3.2 0.00 0.00 0.00 85 1018.1
20260506120017 9 0.0 0.0 0.00 0.05 0.00 87 1018.0
20260506113017 10 0.0 1.6 0.00 0.08 0.00 88 1017.9
20260506110036 10 0.0 0.0 0.00 0.10 0.00 89 1017.9
20260506103037 10 0.0 0.0 0.00 0.15 0.00 88 1017.9
20260506100137 10 0.0 0.0 0.00 0.15 0.00 88 1017.9
20260506093016 10 0.0 0.0 0.00 0.15 0.00 87 1017.9
20260506090016 11 0.0 0.0 0.00 0.15 0.00 84 1018.0
20260506083017 11 0.0 1.6 0.00 0.15 0.00 83 1018.2
20260506073016 12 0.0 1.6 0.00 0.15 0.00 79 1018.1